This demonstration page uses our WeatherBlox Daily Observations layout. Learn more.

Left ArrowRight Arrow

Hourly Observations for September 20, 2018

Temp ( °F °C ) Dew Point ( °F °C ) Humidity (%) Winds ( mph kmh ) Pressure ( in mb ) Visibility ( mi km ) Precip ( " mm )
12:53 am 00:53 Clear 71 21.7 60 15.6 68 68 SSE 15 24 29.78 1008 10 16 0.00 0.00
1:53 am 01:53 Clear 69 20.6 60 15.6 73 73 SE 10 17 29.78 1008 10 16 0.00 0.00
2:53 am 02:53 Mostly Clear 69 20.6 60 15.6 73 73 SSE 10 17 29.78 1009 10 16 0.00 0.00
3:53 am 03:53 Clear 70 21.1 61 16.1 73 73 SSE 13 20 29.76 1008 10 16 0.00 0.00
4:53 am 04:53 Clear 69 20.6 62 16.7 78 78 SSE 10 17 29.75 1008 10 16 0.00 0.00
5:53 am 05:53 Clear 68 20 63 17.2 84 84 SSE 9 15 29.76 1008 10 16 0.00 0.00
6:53 am 06:53 Clear 68 20 63 17.2 84 84 SSE 10 17 29.77 1008 10 16 0.00 0.00
7:53 am 07:53 Sunny 67 19.4 65 18.3 93 93 SE 10 17 29.80 1009 10 16 0.00 0.00
8:53 am 08:53 Sunny 70 21.1 66 18.9 87 87 SE 16 26 29.81 1010 10 16 0.00 0.00
9:53 am 09:53 Mostly Cloudy 73 22.8 64 17.8 74 74 SSE 18 30 29.81 1009 10 16 0.00 0.00
10:53 am 10:53 Cloudy 74 23.3 65 18.3 74 74 SSE 16 26 29.83 1010 10 16 0.00 0.00
11:53 am 11:53 Cloudy 74 23.3 66 18.9 76 76 SE 13 20 29.82 1010 10 16 0.00 0.03
12:53 pm 12:53 Mostly Cloudy 78 25.6 65 18.3 64 64 SSE 17 28 29.80 1009 10 16 0.00 0.00
1:53 pm 13:53 Mostly Cloudy 80 26.7 64 17.8 58 58 SSE 13 20 29.77 1008 10 16 0.00 0.00
2:53 pm 14:53 Cloudy 81 27.2 64 17.8 57 57 SSE 16 26 29.75 1007 10 16 0.00 0.00
3:53 pm 15:53 Cloudy 81 27.2 65 18.3 58 58 S 15 24 29.71 1006 10 16 0.00 0.00
4:53 pm 16:53 Partly Cloudy 84 28.9 64 17.8 51 51 S 14 22 29.69 1006 10 16 0.00 0.00
5:53 pm 17:53 Mostly Sunny 82 27.8 63 17.2 53 53 S 16 26 29.70 1006 10 16 0.00 0.00
7:32 pm 19:32 Cloudy with Nearby Thunderstorms 74 23.3 66 18.9 76 76 SSW 23 37 29.74 1007 10 16 0.00 0.00
7:41 pm 19:41 Cloudy with Nearby Thunderstorms 71 21.7 68 20 90 90 SSW 20 31 29.74 1007 3 5 0.13 3.30
7:45 pm 19:45 Cloudy with Nearby Thunderstorms 71 21.7 68 20 90 90 SSW 15 24 29.74 1007 2 3 0.28 7.11
7:53 pm 19:53 Cloudy with Strong Thunderstorms 70 21.1 68 20 93 93 SSW 9 15 29.78 1008 2 3 0.41 10.41
7:58 pm 19:58 Cloudy with Strong Thunderstorms 70 21.1 69 20.6 97 97 S 10 17 29.74 1007 3 5 0.03 0.76
8:10 pm 20:10 Cloudy with Heavy Rain 70 21.1 69 20.6 97 97 SW 6 9 29.74 1007 3 5 0.09 2.29
8:53 pm 20:53 Mostly Cloudy with Light Rain 70 21.1 69 20.6 97 97 WNW 6 9 29.79 1009 9 14 0.18 4.57
9:24 pm 21:24 Cloudy 70 21.1 69 20.6 97 97 Calm 29.77 1008 10 16 0.00 0.03
9:53 pm 21:53 Cloudy 71 21.7 68 20 90 90 Calm 29.79 1009 10 16 0.00 0.03
10:53 pm 22:53 Cloudy 70 21.1 70 21.1 100 100 ESE 7 11 29.80 1009 10 16 0.00 0.00
11:53 pm 23:53 Mostly Clear 70 21.1 69 20.6 97 97 Calm 29.81 1009 10 16 0.00 0.00

Powered by AerisWeather